Showing default

METEOR 2-21, 22782

Orbit data source: Space-Track

METEOR 2-21, 22782 is a Commonwealth of Independent States-origin payload satellite in LEO that was launched on Tue, 31 Aug 1993 UTC via a TSIKLON-3 launch vehicle from the Plesetsk Missile And Space Complex (PKMTR). Payload-class satellites include a variety of spacecraft equipped with specific instruments for various scientific and technological missions. These include communications satellites like Starlink; space stations such as the ISS; scientific satellites like the Hubble; Earth observation satellites from companies like Planet Labs, Umbra, and HawkEye 360; GPS; miniature CubeSats for education and research; and military/defense satellites.

Loading next visibility...
Identifier
22782, 1993-055A
Orbit
LEO
Country
Flag of CISCIS
Related business
Manufacturer
VNIIEM
Mission
Civil Cal/Sci
Bus & Motor
METEOR-2, Unknown motor
Mass
~1,500 kg wet, ~1,500 kg dry
Launch date (UTC)
1993-08-31 (32 years ago)
Launch vehicle
TSIKLON-3
Launch site
Plesetsk Missile And Space Complex (PKMTR)
Object type
Payload
Rocket body
Debris
Shape & HBR
Cyl + 2 Pan, 2.3 m
Radar Cross Section
5.718 m², Large (>1 m²)

Expand to show TLE details & history
Last TLE update: 9 hours ago

TLE from 9 hours ago
0 METEOR 2-21
1 22782U 93055A   25260.80983939  .00000084  00000-0  62707-4 0  9995
2 22782  82.5512 151.0037 0021090 252.5245 175.2135 13.84001956618376
Epoch: 2025-09-17T19:26Z
TLE epoch observation values (Epoch: 2025-09-17T19:26:10.123Z)
Latitude
66.68658°
Longitude
-119.95252°
Altitude
976.656 km
Speed
7.362 km/s
True Right ascension
11h 14m 16s
True Declination
66° 33' 54"
Sunlit
Object was in daylight at epoch
Visualization orbit readout
Latitude
Unknown
Longitude
Unknown
Altitude
Unknown
Speed
Unknown
Apparent Right ascension
Unknown
Apparent Declination
Unknown
Sunlit
N/A
Visualization observer readout
Local Sidereal Time
21:22:05
Azimuth
Unknown
Elevation
Unknown
Doppler factor
Unknown
Orbital elements
Apogee altitude
962.327 km
Perigee altitude
931.43 km
Semi-major axis
7,325.015 km
Eccentricity
0.00211
Inclination
82.5512°
RAAN
151.0037°
Arg. of periapsis
252.5245°
True anomaly
175.23361°
Mean anomaly
175.2135°
Eccentric anomaly
175.22356°
Mean motion
3.46203 °/min
Orbital period
103.99 mins
BSTAR
0.000062707
Loading maneuver chart data...
Computing Atmospheric mass density...
Loading historical data...
Loading historical data...
Loading historical data...
Loading historical data...
Loading historical data...
Loading historical data...
Loading historical data...
Other satellites on launch #55 in the year 1993 (1993-08-31 UTC)

Documentation

Showing up to 5 results
|